Погода в Мытно

Россия / Новгородская область     58°40′35″N   31°44′52″E
темп.,
°C
ветер,
м/с
пор.,
м/с
влажн.,
%
обл.,
%
осадки,
мм/ч
давл.,
гПа
погр.,
м
22 апреля, чт
чт2200:00+2вюв119970 0.0 100434
03:00+1юв1197100 0.0 100418
06:00+2ююв229745 0.3 100543
09:00+7ююз358688 0.3 1005394
12:00+12ююз465055 0.0 10061105
15:00+14ююз574265 0.0 10072172
18:00+13ю2657100 0.1 1007750
21:00+8юв2674100 0.1 100696
23 апреля, пт
пт2300:00+8ю3992100 1.4 1005547
03:00+6ююз3792100 1.5 1006368
06:00+5ю3891100 0.0 1006382
09:00+7ююз477146 0.1 1006971
12:00+8ююз61056100 0.1 10071948
15:00+8ююз7114816 0.2 10081760
18:00+8ююз59521 0.0 10081533
21:00+4ююз39695 0.0 1009413
24 апреля, сб
сб2400:00+2ю28855 0.0 1009211
03:000ююз239596 0.0 100860
06:00−1ююз25955 0.0 1008158
09:00+3ююз246737 0.0 1008822
12:00+6ююз454811 0.0 10071407
15:00+8юз3539100 0.0 10062255
18:00+7ююз444518 0.0 10051569
21:00+3ю2375100 0.0 100645
25 апреля, вс
вс2500:00+1ю249056 0.0 1005105
03:00−1ю249956 0.0 100493
06:00+2юз248499 0.1 1004670
09:00+1ююз2495100 0.2 1005383
12:00+3ююз2379100 0.1 1006745
15:00+6юз2357100 0.3 10061338
18:00+6юз235869 0.2 10071104
21:00+2юз228470 0.6 100815
26 апреля, пн
пн2600:000юз11915 0.0 100810
03:00−1юз11935 0.0 100910
06:00−1юз22935 0.0 100949
09:00+4юз23695 0.0 1009605
12:00+7юз335389 0.5 10091689
15:00+6зюз4565100 1.4 10101307
18:00+5зюз4668100 0.1 1010773
21:00+2зюз2681100 0.1 1010185